FW8822 Weather Reports


time (UTC)temp
C
wind
direction
speed
KPH
gust
KPH
rain 1hr
cm
rain 24hr
cm
rain mn
cm
humidity
%
barometer
mb
20260507014559 12 274 0.0 1.6 0.00 0.00 0.00 83 1019.4
20260507013101 12 280 1.6 4.8 0.00 0.00 0.00 83 1019.3
20260507011559 12 0 1.6 8.0 0.00 0.00 0.00 83 1019.4
20260507010056 12 286 0.0 6.4 0.00 0.00 0.00 83 1019.5
20260507004605 12 275 1.6 8.0 0.00 0.00 0.00 82 1019.5
20260507003101 13 298 1.6 8.0 0.00 0.00 0.00 81 1019.4
20260507001558 13 277 3.2 6.4 0.00 0.00 0.00 80 1019.3
20260507000054 13 278 1.6 6.4 0.00 0.00 0.00 80 1019.2
20260506234555 13 263 3.2 8.0 0.00 0.00 0.00 77 1019.2
20260506233052 13 284 3.2 4.8 0.00 0.00 0.00 76 1019.3
20260506231555 13 0 0.0 1.6 0.00 0.00 0.00 74 1019.4
20260506230056 13 210 0.0 6.4 0.00 0.00 0.00 75 1019.4
20260506224607 13 196 4.8 8.0 0.00 0.00 0.00 74 1019.5
20260506223101 13 207 3.2 8.0 0.00 0.00 0.00 73 1019.4
20260506221558 14 200 3.2 11.3 0.00 0.00 0.00 73 1019.5
20260506220055 14 247 0.0 6.4 0.00 0.00 0.00 78 1019.6
20260506214609 13 0 1.6 6.4 0.00 0.00 0.00 78 1019.6
20260506213057 13 221 3.2 9.7 0.00 0.00 0.00 79 1019.7
20260506211558 13 189 3.2 8.0 0.00 0.00 0.00 74 1019.7
20260506210100 13 208 0.0 11.3 0.00 0.00 0.00 75 1019.8
20260506204624 13 210 4.8 11.3 0.00 0.00 0.00 74 1019.8
20260506203059 13 180 3.2 8.0 0.00 0.00 0.00 74 1019.6
20260506201558 13 144 1.6 8.0 0.00 0.00 0.00 76 1019.6
20260506200052 12 190 3.2 11.3 0.00 0.00 0.00 80 1019.5
20260506193059 12 196 3.2 12.9 0.00 0.00 0.00 77 1019.4
20260506191554 12 194 6.4 17.7 0.00 0.00 0.00 77 1019.3
20260506190053 12 206 6.4 16.1 0.00 0.00 0.00 78 1019.3
20260506184557 12 234 3.2 11.3 0.00 0.00 0.00 84 1019.3
20260506183105 11 140 8.0 20.9 0.00 0.00 0.00 80 1019.2
20260506181558 11 189 1.6 11.3 0.00 0.00 0.00 81 1019.2
20260506174556 11 193 4.8 11.3 0.00 0.00 0.00 83 1019.2
20260506173054 11 199 6.4 16.1 0.00 0.00 0.00 83 1018.8
20260506171604 11 165 4.8 19.3 0.00 0.00 0.00 84 1018.9
20260506170107 11 218 4.8 16.1 0.00 0.00 0.00 86 1019.1
20260506164600 11 158 4.8 16.1 0.00 0.00 0.00 85 1018.9
20260506163104 11 166 3.2 14.5 0.00 0.00 0.00 86 1018.9
20260506161606 11 183 1.6 11.3 0.00 0.00 0.00 87 1018.8
20260506160055 10 214 3.2 11.3 0.00 0.00 0.00 88 1018.8
20260506154612 10 214 1.6 14.5 0.00 0.00 0.00 89 1018.3
20260506153056 10 132 4.8 19.3 0.00 0.00 0.00 90 1018.3
20260506151558 10 235 0.0 9.7 0.00 0.00 0.00 91 1018.4
20260506150054 10 195 4.8 11.3 0.00 0.00 0.00 90 1018.4
20260506144602 10 0 1.6 11.3 0.00 0.00 0.00 90 1018.7
20260506143056 10 196 3.2 9.7 0.00 0.00 0.00 90 1017.9
20260506141602 10 213 1.6 11.3 0.00 0.00 0.00 90 1018.2
20260506140100 10 196 3.2 11.3 0.00 0.00 0.00 90 1018.2
20260506134557 10 208 0.0 8.0 0.00 0.00 0.00 91 1018.1
20260506133102 10 210 1.6 11.3 0.00 0.00 0.00 91 1017.9
20260506131555 10 185 1.6 4.8 0.00 0.00 0.00 90 1018.0
20260506130054 10 211 1.6 9.7 0.00 0.00 0.00 90 1018.0
20260506124556 10 239 0.0 6.4 0.00 0.00 0.00 90 1017.8
20260506123052 10 172 1.6 9.7 0.00 0.00 0.00 90 1017.3
20260506121553 10 214 1.6 9.7 0.00 0.00 0.00 89 1017.5
20260506120055 10 212 3.2 9.7 0.00 0.00 0.00 89 1017.4
20260506114600 10 163 3.2 6.4 0.00 0.00 0.00 89 1017.2
20260506113102 10 195 3.2 9.7 0.00 0.00 0.00 89 1017.2
20260506111602 10 227 1.6 6.4 0.00 0.00 0.00 88 1017.2
20260506110058 10 175 1.6 9.7 0.00 0.00 0.00 88 1017.1
20260506104600 10 199 3.2 11.3 0.00 0.00 0.00 88 1017.2
20260506103100 10 215 1.6 8.0 0.00 0.00 0.00 89 1017.1
20260506101556 10 196 3.2 11.3 0.00 0.00 0.00 89 1017.0
20260506100101 10 0 1.6 6.4 0.00 0.00 0.00 90 1017.0
20260506094555 10 184 6.4 19.3 0.00 0.00 0.00 89 1016.8
20260506093056 10 209 3.2 16.1 0.00 0.00 0.00 89 1016.7
20260506091557 10 225 3.2 12.9 0.00 0.00 0.00 89 1016.6
20260506090057 10 201 1.6 6.4 0.00 0.00 0.00 88 1016.5
20260506084608 10 208 1.6 8.0 0.00 0.00 0.00 88 1016.3
20260506083100 10 208 1.6 8.0 0.00 0.00 0.00 87 1016.3
20260506081602 10 213 0.0 6.4 0.00 0.00 0.00 87 1016.1
20260506073057 11 217 1.6 8.0 0.00 0.00 0.00 85 1015.9
20260506071556 11 210 3.2 9.7 0.00 0.00 0.00 84 1015.8
20260506061613 12 203 4.8 14.5 0.00 0.00 0.00 82 1015.4
20260506060104 12 206 4.8 9.7 0.00 0.00 0.00 81 1015.4
20260506044632 14 75 1.6 12.9 0.00 0.00 0.00 78 1014.9
20260506043055 14 209 3.2 11.3 0.00 0.00 0.00 79 1014.8
20260506041555 13 0 0.0 3.2 0.00 0.00 0.00 81 1014.7
20260506040056 14 0 0.0 0.0 0.00 0.00 0.00 81 1014.4
20260506034556 15 0 0.0 0.0 0.00 0.00 0.00 79 1014.5
20260506033053 16 0 0.0 1.6 0.00 0.00 0.00 75 1014.2
20260506031553 16 220 0.0 4.8 0.00 0.00 0.00 71 1014.2
20260506030057 17 193 0.0 8.0 0.00 0.00 0.00 69 1014.1
20260506024559 18 191 3.2 11.3 0.00 0.00 0.00 65 1014.0
20260506023100 20 232 1.6 6.4 0.00 0.00 0.00 62 1014.0
20260506021606 20 0 0.0 8.0 0.00 0.00 0.00 60 1013.9
20260506020052 20 0 0.0 3.2 0.00 0.00 0.00 65 1013.9